Wind_Speed
5 5 9 11 12 12 24 30 26 25 21 21 18 17 14 13 11 9 7 6 6 7 13 15 17 18 14 19 15 7 8 12 22 14 22 12 13 3 1 3 10 9 9 9 9
6 5 7 9 13 8 12 13 27 28 24 24 20 19 16 16 13 12 10 7 7 5 7 14 17 17 18 19 18 12 2 19 22 24 18 10 8 11 2 3 6 7 6 7 9
5 3 7 8 11 11 9 8 23 32 29 26 24 22 18 16 16 14 13 11 8 8 7 7 11 15 18 21 18 19 5 6 9 17 15 7 7 8 3 9 4 7 8 9 10
8 7 3 3 7 8 12 9 19 33 34 30 26 24 22 17 15 17 16 14 13 10 10 9 7 11 18 19 18 20 12 10 6 6 16 7 3 11 5 4 7 7 5 7 9
8 8 7 6 4 7 10 12 6 32 32 30 28 26 24 21 15 15 18 18 17 15 12 11 11 9 11 18 22 21 16 12 12 7 8 9 3 11 4 7 7 8 6 4 7
10 8 7 7 6 6 6 10 10 26 32 31 29 27 23 21 18 17 17 20 20 18 17 15 13 14 12 10 15 22 23 19 16 14 13 10 4 14 15 8 12 12 13 11 9
11 8 8 8 7 6 5 7 10 9 34 30 30 25 22 26 20 20 17 18 22 23 22 20 18 14 14 11 9 12 18 19 17 16 16 10 7 16 21 14 10 17 15 14 13
11 11 10 9 9 7 6 4 6 9 22 32 29 26 18 25 23 21 21 21 22 24 25 24 22 18 16 16 12 9 11 13 15 15 16 15 12 15 22 24 15 15 16 14 12
6 7 7 7 9 8 7 7 5 5 9 22 37 28 23 29 27 28 23 23 24 24 25 28 27 25 23 20 16 13 9 12 17 19 13 14 14 16 16 15 22 16 14 15 13
6 4 4 4 5 6 5 5 6 7 7 13 19 24 25 24 33 30 23 27 27 29 28 28 30 31 28 24 15 14 14 11 14 19 14 16 14 13 20 19 20 20 15 17 17
8 9 8 5 4 1 3 3 1 4 11 12 10 16 19 22 21 26 31 31 31 30 27 31 33 31 29 28 24 22 21 16 7 15 13 11 15 18 25 22 25 26 21 16 17
10 10 12 12 8 5 7 6 5 4 4 8 11 16 19 19 20 23 28 28 30 29 29 33 35 26 28 31 31 28 26 21 21 13 23 23 18 19 25 22 30 32 25 20 19
9 11 13 15 14 13 14 14 16 13 4 11 9 6 21 19 23 21 24 26 29 32 30 34 28 29 31 30 35 32 28 23 23 17 19 28 25 33 35 28 30 30 32 30 25
13 15 16 17 15 15 16 18 20 22 19 16 11 11 15 22 19 25 28 28 29 29 29 37 30 32 35 35 33 38 30 27 28 22 23 30 29 36 32 33 33 31 24 27 30
16 16 17 17 15 15 16 17 21 23 27 28 23 19 20 19 19 23 28 31 33 31 32 30 30 33 36 36 33 33 34 36 33 36 27 26 27 29 40 49 41 36 28 23 28
18 18 19 20 20 20 21 22 25 25 27 33 36 34 32 25 26 29 27 33 34 38 38 34 34 33 36 36 37 32 36 35 36 45 45 35 33 32 25 31 37 37 26 24 25
19 20 21 22 24 24 25 27 26 28 28 37 40 41 40 34 30 26 33 34 38 39 40 39 36 34 34 38 37 37 39 34 39 41 48 42 37 37 29 34 43 40 30 26 24
22 24 24 26 27 27 28 30 31 33 36 39 39 39 39 38 31 29 30 41 42 42 43 43 41 34 36 40 39 40 38 39 43 39 32 21 33 34 36 41 43 44 41 34 34
25 26 26 27 28 28 30 32 33 35 36 39 37 40 37 35 36 33 34 39 44 45 45 44 45 32 27 32 33 37 42 34 35 21 23 19 26 24 41 36 43 44 44 41 41
27 29 28 30 30 33 33 35 35 38 39 40 41 41 37 36 33 33 38 41 45 32 41 42 44 37 28 29 35 39 32 28 37 31 32 25 24 29 40 38 42 41 39 42 42
31 29 33 32 33 33 34 36 37 39 40 39 39 43 41 38 36 33 40 40 41 45 25 40 39 37 33 34 43 36 37 34 25 35 38 31 25 32 39 42 44 45 47 44 30
36 32 35 34 35 35 36 37 38 37 39 39 42 42 44 44 43 45 45 42 32 40 35 35 35 39 36 37 38 35 34 42 33 35 42 33 29 25 32 41 46 31 12 28 37
39 35 35 38 38 39 40 39 39 38 38 37 39 42 47 52 57 54 54 38 44 50 42 36 43 43 39 34 30 35 28 41 33 30 38 34 39 34 37 36 33 31 40 28 21
39 41 38 37 39 39 41 40 39 38 41 41 44 49 50 55 57 57 49 45 51 52 50 41 44 50 45 37 31 37 27 41 37 35 34 37 42 40 41 39 30 33 33 19 27
40 40 39 40 40 41 42 39 37 38 41 42 46 48 54 55 53 49 52 49 53 50 49 46 39 49 45 39 32 34 19 35 43 37 32 34 38 47 45 38 41 38 30 33 18
39 38 39 39 40 39 40 39 38 39 38 40 45 50 44 51 24 36 49 45 57 44 44 48 32 46 48 40 35 32 20 31 36 36 30 32 35 42 40 40 20 34 12 16 18
38 40 39 39 39 37 37 37 35 36 37 41 43 38 36 35 28 34 37 41 37 43 48 48 41 42 47 41 40 34 30 22 28 19 22 39 37 36 23 24 26 33 22 23 24
Wind_Direction
281 269 249 232 211 247 218 225 222 223 224 213 200 201 200 191 182 175 162 167 145 171 181 184 179 177 170 171 149 164 91 29 345 109 78 38 348 291 206 61 61 50 41 44 44
304 269 246 236 218 226 160 220 220 221 223 217 208 207 212 201 189 192 182 186 176 162 179 191 194 185 175 177 176 183 64 25 83 96 100 87 321 319 129 82 65 62 35 24 36
340 301 245 239 231 227 230 284 221 223 219 219 212 212 216 213 199 200 198 198 200 184 179 176 194 204 183 186 194 210 197 13 34 116 110 158 246 244 275 66 358 46 45 48 35
337 357 334 255 248 251 234 264 218 204 213 215 216 215 219 219 215 215 204 205 210 204 198 188 191 209 207 197 202 210 196 165 54 154 186 249 135 287 274 3 12 16 30 37 22
314 317 331 342 320 261 257 254 267 204 204 210 213 217 219 224 222 228 221 212 211 216 212 208 202 203 211 216 217 215 214 186 160 257 218 219 201 266 281 7 331 324 327 350 357
301 302 295 298 311 319 285 263 256 219 202 204 210 215 219 227 225 232 232 223 219 216 220 218 216 214 217 216 220 219 214 214 217 212 201 220 161 279 296 318 316 320 311 305 313
305 290 288 286 281 284 327 295 263 255 214 204 208 208 210 227 228 235 234 236 227 225 221 227 222 227 225 220 219 226 230 220 218 219 195 194 161 260 283 293 291 314 318 305 306
334 327 305 291 276 277 275 309 281 249 227 214 217 215 214 229 231 227 235 236 235 230 232 225 232 226 232 230 227 219 198 217 207 206 193 206 221 227 259 278 280 307 313 314 314
328 333 335 315 293 274 254 248 240 241 237 224 228 234 250 248 236 235 237 241 236 231 233 234 230 230 229 232 226 222 215 197 206 205 197 198 230 248 284 281 290 299 324 324 317
357 355 331 312 310 290 264 236 234 218 218 225 219 226 233 245 242 237 234 239 236 236 229 236 235 233 233 234 233 231 227 208 225 210 188 208 239 278 276 283 291 300 334 319 318
348 348 354 358 339 27 60 79 334 222 227 230 222 239 242 247 244 245 239 238 240 236 236 234 234 235 235 237 235 235 230 213 206 207 199 216 234 261 283 288 288 289 313 304 296
343 353 356 3 13 20 30 47 66 115 277 253 249 237 249 247 249 249 249 245 245 243 238 237 236 236 234 234 233 234 236 218 165 180 217 219 240 242 244 237 261 274 292 296 297
357 359 359 355 354 351 354 355 352 354 355 284 282 246 254 262 250 243 253 253 255 250 243 244 242 234 231 233 233 228 231 226 169 182 223 234 238 220 246 252 258 277 285 291 294
355 350 346 341 336 337 337 339 336 334 323 313 319 293 264 263 261 255 249 250 250 252 251 244 239 238 235 228 230 230 223 220 181 194 216 234 235 225 244 258 259 262 269 275 284
348 343 336 335 329 324 320 315 316 315 315 301 311 301 295 290 277 264 259 253 249 253 249 250 245 240 240 236 230 233 222 220 207 198 205 217 235 239 252 255 256 257 257 246 271
347 342 336 331 329 323 316 311 309 306 310 302 297 297 296 291 289 283 267 265 254 247 249 249 242 236 236 240 232 225 224 224 221 208 216 209 228 240 243 258 260 261 260 250 264
335 332 327 319 313 306 302 300 302 299 294 293 297 297 296 297 288 269 274 264 262 257 251 250 249 242 236 232 235 226 226 220 223 221 223 213 224 255 254 241 255 268 269 269 257
325 322 318 314 310 302 296 299 295 291 289 289 293 293 294 296 290 279 253 256 255 248 246 243 242 242 236 233 234 237 230 229 232 234 243 247 243 247 245 244 251 260 261 262 268
318 317 317 314 307 302 298 297 295 293 293 293 295 292 293 291 286 270 257 248 251 250 244 240 238 232 228 236 232 225 234 227 231 221 214 200 232 247 243 243 248 256 261 265 270
314 314 313 309 306 302 298 294 297 298 296 295 294 293 291 287 279 268 262 254 246 250 246 235 239 226 206 213 226 233 231 218 222 210 203 205 243 262 244 252 255 255 258 259 263
311 314 308 307 307 304 300 297 297 299 299 297 295 294 292 286 276 265 267 268 259 242 249 243 230 224 199 205 227 235 225 216 218 221 211 215 234 245 238 240 248 251 247 244 241
308 310 308 306 306 302 300 300 300 300 299 298 295 291 286 282 276 269 269 270 252 228 213 226 221 210 197 200 228 241 227 221 208 208 214 217 237 237 261 248 267 221 153 186 238
306 305 307 304 301 305 299 298 302 300 297 296 290 285 286 285 279 272 264 257 231 211 204 200 224 205 198 197 211 234 225 216 214 209 216 220 223 242 255 266 282 278 303 286 231
302 304 302 301 299 301 300 299 302 300 297 297 296 294 293 288 279 270 257 237 223 210 205 203 202 203 194 196 211 225 228 212 204 218 214 216 227 237 244 261 277 278 281 286 294
299 300 300 300 299 297 300 301 299 298 298 301 302 301 301 292 285 258 240 224 210 205 200 206 201 199 187 184 190 223 242 220 205 215 218 215 223 234 246 255 265 274 294 307 312
295 297 299 299 299 300 300 301 298 301 302 300 304 309 303 301 285 236 230 219 208 193 194 197 197 196 187 190 200 208 215 212 201 219 220 219 219 230 242 249 278 275 288 308 320
294 295 298 300 300 300 299 298 298 301 307 305 308 309 302 306 247 235 233 218 190 183 187 183 183 193 189 192 204 201 194 206 206 189 207 210 227 233 260 247 264 282 291 298 310
Height
5862 5862 5863 5864 5865 5866 5868 5873 5878 5882 5887 5890 5892 5896 5898 5901 5904 5906 5907 5910 5910 5912 5914 5917 5920 5922 5924 5926 5927 5927 5924 5923 5920 5921 5927 5933 5932 5930 5930 5929 5930 5929 5928 5929 5929
5860 5859 5860 5861 5862 5864 5866 5870 5873 5878 5882 5886 5889 5893 5896 5899 5902 5905 5907 5909 5910 5912 5914 5916 5918 5921 5924 5925 5927 5925 5924 5923 5926 5931 5934 5936 5935 5930 5930 5930 5931 5932 5931 5931 5930
5859 5859 5859 5859 5860 5863 5864 5866 5867 5872 5878 5882 5885 5890 5894 5898 5901 5903 5905 5908 5910 5911 5913 5914 5917 5920 5921 5923 5925 5924 5923 5924 5928 5930 5931 5934 5933 5930 5930 5932 5931 5931 5932 5932 5933
5859 5858 5859 5858 5859 5860 5862 5862 5862 5867 5874 5878 5882 5886 5891 5896 5900 5901 5904 5906 5909 5910 5912 5914 5916 5918 5921 5923 5924 5924 5924 5926 5927 5929 5933 5934 5933 5928 5929 5930 5930 5931 5932 5932 5932
5858 5857 5856 5856 5856 5858 5858 5859 5861 5863 5868 5873 5878 5883 5888 5894 5898 5898 5902 5904 5906 5909 5911 5912 5914 5916 5918 5920 5921 5923 5923 5925 5926 5928 5930 5933 5932 5929 5929 5930 5931 5931 5932 5932 5932
5857 5856 5855 5855 5855 5855 5856 5857 5858 5860 5863 5869 5874 5879 5886 5891 5894 5896 5899 5901 5904 5906 5908 5911 5912 5913 5915 5916 5918 5919 5918 5921 5924 5927 5930 5932 5932 5927 5927 5930 5929 5931 5931 5932 5931
5853 5853 5853 5853 5854 5855 5854 5855 5856 5856 5860 5864 5869 5875 5883 5885 5890 5893 5895 5898 5900 5903 5905 5907 5909 5911 5913 5914 5915 5916 5917 5919 5921 5925 5927 5931 5931 5926 5925 5927 5930 5930 5929 5929 5929
5851 5850 5851 5850 5851 5852 5854 5854 5854 5854 5856 5861 5866 5871 5879 5881 5885 5889 5891 5895 5897 5899 5903 5903 5907 5908 5910 5911 5913 5915 5914 5917 5918 5922 5924 5929 5929 5928 5924 5924 5928 5928 5928 5927 5928
5851 5850 5849 5849 5848 5850 5851 5853 5854 5854 5856 5859 5865 5871 5875 5876 5882 5883 5887 5890 5893 5895 5897 5900 5902 5904 5906 5908 5911 5913 5914 5915 5917 5919 5923 5926 5924 5926 5924 5925 5923 5926 5925 5925 5926
5850 5849 5849 5850 5848 5848 5848 5850 5852 5855 5857 5859 5863 5868 5871 5872 5873 5877 5882 5884 5886 5888 5892 5896 5897 5899 5901 5905 5910 5911 5912 5914 5916 5918 5919 5923 5923 5924 5924 5922 5920 5921 5924 5924 5925
5849 5847 5847 5846 5846 5847 5848 5849 5852 5854 5855 5858 5862 5863 5866 5867 5869 5872 5874 5876 5880 5882 5888 5889 5890 5894 5899 5902 5905 5905 5907 5908 5913 5915 5917 5922 5923 5924 5921 5919 5917 5917 5921 5923 5925
5847 5847 5846 5846 5846 5845 5846 5848 5850 5853 5853 5853 5855 5860 5860 5862 5866 5869 5869 5872 5874 5879 5880 5882 5884 5892 5893 5895 5898 5900 5902 5906 5908 5916 5916 5919 5923 5921 5919 5918 5916 5916 5917 5918 5920
5847 5846 5846 5845 5844 5844 5844 5845 5846 5849 5851 5849 5852 5857 5854 5857 5859 5862 5864 5867 5869 5871 5874 5876 5883 5883 5885 5887 5890 5895 5897 5901 5905 5910 5912 5916 5918 5917 5913 5916 5916 5915 5913 5912 5914
5845 5845 5844 5844 5845 5843 5842 5842 5842 5843 5844 5847 5850 5850 5851 5849 5855 5856 5857 5860 5860 5864 5866 5867 5875 5876 5877 5879 5884 5887 5894 5897 5901 5903 5909 5910 5913 5911 5909 5910 5912 5914 5916 5914 5908
5843 5843 5842 5842 5842 5841 5842 5841 5841 5840 5838 5837 5843 5842 5843 5845 5847 5849 5849 5851 5856 5857 5857 5864 5865 5868 5870 5875 5878 5882 5886 5889 5896 5896 5898 5902 5906 5910 5908 5904 5906 5909 5912 5915 5906
5840 5840 5839 5839 5838 5838 5837 5837 5837 5838 5836 5832 5831 5834 5836 5840 5838 5838 5841 5840 5844 5846 5850 5854 5855 5859 5863 5867 5870 5876 5877 5881 5885 5889 5887 5894 5897 5899 5902 5899 5896 5898 5907 5910 5906
5837 5837 5836 5835 5834 5834 5833 5833 5834 5832 5831 5827 5825 5824 5824 5828 5829 5831 5829 5833 5834 5838 5842 5845 5849 5853 5856 5857 5862 5865 5869 5874 5875 5877 5879 5889 5890 5893 5898 5895 5889 5891 5900 5901 5900
5834 5833 5832 5830 5829 5829 5828 5827 5826 5824 5822 5821 5820 5818 5816 5816 5819 5820 5821 5820 5823 5825 5830 5834 5838 5844 5848 5849 5855 5857 5862 5866 5867 5872 5881 5887 5884 5887 5888 5889 5887 5886 5888 5891 5893
5830 5828 5827 5825 5823 5821 5821 5819 5817 5816 5814 5812 5812 5809 5810 5809 5806 5806 5808 5809 5812 5816 5817 5821 5827 5835 5837 5843 5846 5851 5852 5862 5863 5871 5874 5878 5880 5877 5875 5876 5873 5875 5880 5884 5885
5826 5823 5822 5818 5816 5814 5812 5809 5808 5805 5803 5802 5800 5799 5798 5797 5797 5795 5793 5797 5799 5804 5806 5814 5813 5822 5828 5838 5839 5841 5850 5853 5855 5861 5864 5871 5873 5870 5867 5868 5869 5870 5872 5874 5877
5818 5818 5812 5811 5808 5806 5803 5800 5798 5795 5792 5790 5788 5785 5784 5785 5784 5784 5782 5786 5791 5796 5799 5802 5806 5815 5818 5822 5828 5835 5839 5842 5850 5855 5858 5863 5865 5866 5863 5862 5859 5862 5858 5862 5867
5810 5810 5804 5802 5800 5797 5794 5791 5788 5785 5780 5778 5774 5772 5769 5769 5770 5768 5770 5773 5786 5784 5779 5788 5798 5802 5807 5812 5821 5827 5832 5836 5839 5846 5852 5856 5856 5859 5853 5853 5847 5845 5822 5842 5862
5801 5799 5797 5792 5789 5786 5783 5780 5777 5774 5770 5767 5762 5759 5755 5752 5746 5749 5749 5763 5762 5761 5765 5773 5782 5791 5799 5806 5808 5815 5823 5829 5834 5840 5843 5849 5850 5853 5852 5850 5848 5841 5840 5854 5860
5792 5789 5789 5784 5780 5776 5772 5769 5766 5762 5757 5752 5748 5741 5736 5730 5726 5718 5724 5736 5742 5754 5757 5760 5763 5776 5788 5799 5806 5811 5816 5822 5826 5831 5837 5841 5844 5846 5849 5846 5845 5849 5848 5850 5852
5782 5779 5776 5772 5769 5766 5762 5758 5755 5750 5744 5739 5734 5725 5716 5704 5698 5695 5697 5709 5723 5735 5745 5753 5757 5770 5784 5793 5797 5807 5810 5814 5819 5825 5831 5835 5840 5841 5839 5841 5842 5844 5839 5841 5843
5772 5769 5767 5763 5758 5755 5750 5748 5743 5739 5734 5727 5719 5711 5701 5687 5679 5678 5680 5696 5707 5718 5730 5745 5753 5767 5777 5786 5793 5798 5803 5809 5814 5821 5828 5828 5832 5832 5833 5833 5833 5836 5838 5841 5838
5762 5759 5757 5753 5749 5745 5742 5737 5734 5728 5725 5715 5706 5698 5689 5679 5675 5677 5680 5691 5698 5711 5722 5734 5745 5761 5771 5780 5784 5789 5794 5805 5811 5818 5822 5824 5824 5826 5828 5828 5830 5832 5835 5838 5839